Weather History for KELY - February, 2012

Change the Weather History Date:

Monday, February 27, 2012

  Actual Average Record
Temperature  
Mean Temperature 31 °F 32 °F  
Max Temperature 40 °F 46 °F 63 °F (1972)
Min Temperature 22 °F 19 °F -18 °F (1962)
Degree Days  
Heating Degree Days 34 33  
Month to date heating degree days 947 975  
Since 1 July heating degree days 4820 5304  
Cooling Degree Days 0 0  
Month to date cooling degree days 0 0  
Year to date cooling degree days 0 0  
Moisture  
Dew Point 17 °F    
Average Humidity 54    
Maximum Humidity 78    
Minimum Humidity 29    
Precipitation  
Precipitation 0.04 in 0.03 in 0.62 in (1904)
Month to date precipitation 0.75 0.72  
Year to date precipitation 1.42 1.42  
Snow  
Snow 0.80 in 0.20 in 9.00 in (1904)
Month to date snowfall 10.7 7.6  
Since 1 July snowfall 31.5 34.6  
Snow Depth 0.00 in    
Sea Level Pressure  
Sea Level Pressure 29.67 in    
Wind  
Wind Speed 11 mph (SW)    
Max Wind Speed 25 mph    
Max Gust Speed 32 mph    
Visibility 8 miles    
Events Snow    
T = Trace of Precipitation, MM = Missing Value Source: NWS Daily Summary

Daily Weather History Graph

Daily Weather History Graph

Search for Another Location

Airport or City:

Trip Planner

Search our weather history database for the weather conditions in past years. The results will help you decide how hot, cold, wet, or windy it might be!

Date:

Astronomy

Feb. 27, 2012 Rise Set
Actual Time 6:15 AM PST 5:29 PM PST
Civil Twilight 5:48 AM PST 5:56 PM PST
Nautical Twilight 5:17 AM PST 6:27 PM PST
Astronomical Twilight 4:46 AM PST 6:58 PM PST
Moon 8:49 AM PST (2/27) 11:24 PM PST (2/27)
Length of Visible Light 12h 07m
Length of Day
11h 13m
Waxing Crescent, 30% of the Moon is Illuminated
Feb 27
Waxing Crescent
Feb 29
First Quarter
Mar 8
Full
Mar 14
Last Quarter
Mar 22
New

Hourly Weather History & Observations

Time (PST) Temp. Windchill Dew Point Humidity Pressure Visibility Wind Dir Wind Speed Gust Speed Precip Events Conditions
12:53 AM 30.9 °F 21.7 °F 7.0 °F 37% 29.72 in 10.0 mi SSW 11.5 mph - N/A   Clear
1:53 AM 32.0 °F 22.5 °F 6.1 °F 34% 29.68 in 10.0 mi SW 12.7 mph 19.6 mph N/A   Clear
2:53 AM 32.0 °F 23.0 °F 5.0 °F 32% 29.66 in 10.0 mi SSW 11.5 mph - N/A   Clear
3:53 AM 34.0 °F 24.6 °F 5.0 °F 30% 29.65 in 10.0 mi SSW 13.8 mph 21.9 mph N/A   Scattered Clouds
4:53 AM 33.1 °F 23.9 °F 6.1 °F 32% 29.67 in 10.0 mi SW 12.7 mph - N/A   Overcast
5:53 AM 32.0 °F 24.8 °F 8.1 °F 37% 29.70 in 10.0 mi SSW 8.1 mph - N/A   Overcast
6:53 AM 34.0 °F 25.0 °F 14.0 °F 44% 29.71 in 10.0 mi South 12.7 mph 21.9 mph N/A   Overcast
7:53 AM 34.0 °F 23.0 °F 19.0 °F 54% 29.72 in 10.0 mi South 18.4 mph 25.3 mph N/A   Overcast
8:53 AM 34.0 °F 24.6 °F 19.0 °F 54% 29.73 in 10.0 mi SW 13.8 mph - N/A   Overcast
9:53 AM 33.1 °F 24.4 °F 21.9 °F 64% 29.73 in 10.0 mi SSW 11.5 mph - N/A   Overcast
10:53 AM 35.1 °F 25.5 °F 18.0 °F 50% 29.70 in 10.0 mi SSW 15.0 mph 21.9 mph N/A   Overcast
11:53 AM 33.1 °F 23.4 °F 19.9 °F 59% 29.69 in 10.0 mi South 13.8 mph - N/A   Overcast
12:53 PM 36.0 °F 31.1 °F 18.0 °F 48% 29.65 in 10.0 mi WNW 5.8 mph - N/A   Overcast
1:53 PM 37.0 °F 34.5 °F 17.1 °F 44% 29.62 in 10.0 mi Variable 3.5 mph - N/A   Overcast
2:53 PM 39.9 °F 31.8 °F 10.0 °F 29% 29.59 in 10.0 mi South 15.0 mph 20.7 mph N/A   Overcast
3:53 PM 37.0 °F 28.9 °F 16.0 °F 42% 29.60 in 10.0 mi SW 12.7 mph - N/A   Partly Cloudy
4:53 PM 35.1 °F 27.4 °F 18.0 °F 50% 29.63 in 10.0 mi SSW 10.4 mph - N/A   Overcast
5:53 PM 33.1 °F 24.4 °F 19.0 °F 56% 29.63 in 10.0 mi SSE 11.5 mph - N/A   Mostly Cloudy
6:53 PM 33.1 °F 24.4 °F 17.1 °F 52% 29.63 in 10.0 mi South 11.5 mph - N/A   Mostly Cloudy
7:53 PM 33.1 °F 25.5 °F 18.0 °F 54% 29.63 in 10.0 mi WSW 9.2 mph - N/A   Overcast
8:53 PM 28.9 °F 21.1 °F 23.0 °F 78% 29.67 in 10.0 mi NNW 8.1 mph - N/A   Mostly Cloudy
9:20 PM 28.4 °F 20.4 °F 23.0 °F 80% 29.69 in 1.8 mi West 8.1 mph - 0.00 in Snow Light Snow
9:28 PM 28.4 °F 20.4 °F 24.8 °F 86% 29.69 in 1.0 mi WSW 8.1 mph - 0.01 in Snow Light Snow
9:30 PM 28.4 °F 19.7 °F 24.8 °F 86% 29.69 in 0.8 mi West 9.2 mph - 0.01 in Snow Light Snow
9:42 PM 26.6 °F 17.5 °F 24.8 °F 93% 29.69 in 1.5 mi WNW 9.2 mph - 0.02 in Snow Light Snow
9:47 PM 26.6 °F 20.0 °F 24.8 °F 93% 29.69 in 3.0 mi WNW 5.8 mph - 0.02 in Snow Light Snow
9:53 PM 27.0 °F 21.6 °F 24.1 °F 89% 29.69 in 6.0 mi NW 4.6 mph - 0.02 in Snow Light Snow
10:53 PM 26.1 °F - 23.0 °F 88% 29.68 in 10.0 mi Calm Calm - 0.00 in   Overcast
11:53 PM 21.9 °F 15.7 °F 19.0 °F 89% 29.70 in 10.0 mi SSW 4.6 mph - N/A   Overcast